QPF
0.00 0.00 0.00 0.00 0.00 0.00 0.00 0.00 0.00 0.00 0.00 0.00 0.00 0.00 0.00 0.00 0.00 0.04 0.01 0.00 0.00 0.00 0.00 0.00 0.00 0.00 0.00 0.00 0.00 0.00 0.00 0.00 0.00 0.00 0.00 0.00 0.01 0.01 0.00 0.00 0.03 0.05 0.01 0.02 0.06 0.03 0.01 0.00 0.00
0.00 0.00 0.00 0.00 0.00 0.00 0.00 0.00 0.00 0.00 0.00 0.00 0.00 0.00 0.00 0.00 0.00 0.00 0.00 0.00 0.00 0.00 0.00 0.00 0.00 0.00 0.00 0.00 0.00 0.00 0.00 0.00 0.00 0.00 0.00 0.00 0.00 0.01 0.00 0.00 0.01 0.03 0.02 0.01 0.01 0.02 0.01 0.00 0.00
0.00 0.00 0.00 0.00 0.00 0.00 0.00 0.00 0.00 0.00 0.00 0.00 0.00 0.00 0.00 0.00 0.00 0.00 0.00 0.00 0.00 0.00 0.00 0.00 0.00 0.00 0.00 0.00 0.00 0.00 0.01 0.01 0.00 0.00 0.00 0.00 0.00 0.01 0.01 0.00 0.00 0.00 0.00 0.00 0.00 0.00 0.00 0.00 0.00
0.00 0.00 0.00 0.00 0.00 0.00 0.00 0.00 0.00 0.00 0.00 0.00 0.00 0.00 0.00 0.00 0.00 0.00 0.00 0.00 0.00 0.00 0.00 0.00 0.00 0.01 0.00 0.00 0.00 0.00 0.01 0.01 0.00 0.00 0.00 0.00 0.00 0.00 0.01 0.01 0.01 0.01 0.00 0.00 0.00 0.00 0.00 0.00 0.00
0.00 0.00 0.00 0.00 0.00 0.00 0.00 0.00 0.00 0.00 0.00 0.00 0.00 0.00 0.00 0.00 0.00 0.00 0.00 0.00 0.00 0.00 0.00 0.00 0.00 0.00 0.00 0.00 0.00 0.00 0.00 0.01 0.00 0.00 0.00 0.00 0.00 0.00 0.00 0.00 0.01 0.00 0.00 0.00 0.00 0.00 0.01 0.00 0.00
0.00 0.00 0.00 0.00 0.00 0.00 0.00 0.00 0.00 0.00 0.00 0.00 0.00 0.00 0.00 0.00 0.00 0.00 0.00 0.00 0.00 0.00 0.00 0.00 0.00 0.01 0.02 0.01 0.00 0.01 0.04 0.03 0.00 0.00 0.00 0.00 0.00 0.01 0.01 0.00 0.00 0.00 0.00 0.00 0.01 0.02 0.02 0.01 0.04
0.00 0.00 0.00 0.00 0.00 0.00 0.00 0.00 0.00 0.00 0.00 0.00 0.00 0.00 0.00 0.00 0.00 0.00 0.00 0.00 0.00 0.00 0.02 0.01 0.00 0.00 0.03 0.07 0.09 0.10 0.11 0.16 0.04 0.00 0.00 0.00 0.00 0.02 0.01 0.01 0.00 0.00 0.01 0.01 0.02 0.04 0.02 0.01 0.01
0.00 0.00 0.00 0.00 0.00 0.00 0.00 0.00 0.00 0.00 0.00 0.00 0.00 0.00 0.00 0.00 0.00 0.00 0.00 0.00 0.00 0.00 0.05 0.14 0.08 0.01 0.00 0.01 0.07 0.21 0.13 0.17 0.15 0.03 0.01 0.00 0.00 0.01 0.02 0.02 0.00 0.00 0.00 0.00 0.01 0.07 0.02 0.00 0.00
0.00 0.00 0.00 0.00 0.00 0.00 0.00 0.00 0.00 0.00 0.00 0.00 0.00 0.00 0.00 0.00 0.00 0.00 0.00 0.00 0.00 0.00 0.02 0.08 0.08 0.09 0.11 0.10 0.14 0.21 0.11 0.09 0.28 0.13 0.03 0.01 0.00 0.00 0.00 0.01 0.02 0.01 0.03 0.00 0.00 0.02 0.01 0.00 0.00
0.00 0.00 0.00 0.00 0.00 0.00 0.00 0.00 0.00 0.00 0.00 0.00 0.00 0.00 0.00 0.00 0.00 0.00 0.00 0.00 0.00 0.00 0.01 0.01 0.04 0.09 0.11 0.18 0.19 0.24 0.26 0.19 0.16 0.19 0.09 0.08 0.01 0.00 0.00 0.03 0.07 0.06 0.03 0.01 0.00 0.04 0.03 0.00 0.00
0.00 0.00 0.00 0.00 0.00 0.00 0.00 0.00 0.00 0.00 0.00 0.00 0.00 0.00 0.00 0.00 0.00 0.00 0.00 0.00 0.00 0.00 0.00 0.01 0.05 0.06 0.10 0.16 0.21 0.38 0.46 0.37 0.13 0.17 0.19 0.16 0.18 0.07 0.05 0.06 0.02 0.05 0.09 0.00 0.00 0.02 0.01 0.00 0.00
0.00 0.00 0.00 0.00 0.00 0.00 0.00 0.00 0.00 0.00 0.00 0.00 0.00 0.00 0.00 0.00 0.00 0.00 0.00 0.00 0.00 0.00 0.00 0.02 0.02 0.01 0.04 0.08 0.10 0.23 0.19 0.20 0.15 0.15 0.05 0.07 0.16 0.14 0.15 0.14 0.06 0.10 0.07 0.00 0.00 0.00 0.00 0.00 0.00
0.00 0.00 0.00 0.00 0.00 0.00 0.00 0.00 0.00 0.00 0.00 0.00 0.00 0.00 0.00 0.00 0.00 0.00 0.00 0.00 0.00 0.00 0.00 0.00 0.00 0.00 0.03 0.02 0.14 0.17 0.15 0.24 0.14 0.09 0.02 0.00 0.01 0.06 0.11 0.15 0.12 0.06 0.07 0.00 0.00 0.00 0.00 0.00 0.00
0.00 0.00 0.00 0.00 0.00 0.00 0.00 0.00 0.00 0.00 0.00 0.00 0.00 0.00 0.00 0.00 0.00 0.00 0.00 0.00 0.00 0.00 0.00 0.00 0.00 0.00 0.01 0.01 0.05 0.09 0.11 0.15 0.08 0.03 0.02 0.00 0.00 0.00 0.01 0.08 0.10 0.08 0.04 0.00 0.00 0.00 0.00 0.00 0.00
0.00 0.00 0.00 0.00 0.00 0.00 0.00 0.00 0.00 0.00 0.00 0.00 0.00 0.00 0.00 0.00 0.00 0.00 0.00 0.00 0.00 0.00 0.00 0.00 0.00 0.00 0.00 0.01 0.04 0.02 0.05 0.06 0.06 0.02 0.00 0.00 0.00 0.00 0.00 0.00 0.06 0.03 0.00 0.00 0.00 0.00 0.00 0.00 0.00
0.00 0.00 0.00 0.00 0.00 0.00 0.00 0.00 0.00 0.00 0.00 0.00 0.00 0.00 0.00 0.00 0.00 0.00 0.00 0.00 0.00 0.00 0.00 0.00 0.00 0.00 0.00 0.00 0.01 0.02 0.01 0.02 0.02 0.04 0.02 0.00 0.00 0.00 0.01 0.02 0.08 0.02 0.00 0.00 0.00 0.00 0.00 0.00 0.00
0.00 0.00 0.00 0.00 0.00 0.00 0.00 0.00 0.00 0.00 0.00 0.00 0.00 0.00 0.00 0.00 0.00 0.00 0.00 0.00 0.00 0.00 0.00 0.00 0.00 0.00 0.00 0.00 0.00 0.01 0.01 0.01 0.04 0.03 0.04 0.01 0.01 0.02 0.02 0.02 0.12 0.03 0.00 0.00 0.00 0.00 0.00 0.00 0.00
0.00 0.00 0.00 0.00 0.00 0.00 0.00 0.00 0.00 0.00 0.00 0.00 0.00 0.00 0.00 0.00 0.00 0.00 0.00 0.00 0.00 0.00 0.00 0.00 0.00 0.00 0.00 0.00 0.01 0.00 0.00 0.00 0.02 0.01 0.01 0.01 0.03 0.08 0.06 0.04 0.08 0.02 0.00 0.00 0.00 0.00 0.00 0.00 0.00
0.00 0.00 0.00 0.00 0.00 0.00 0.00 0.00 0.00 0.00 0.00 0.00 0.00 0.00 0.00 0.00 0.00 0.00 0.00 0.00 0.00 0.00 0.00 0.00 0.00 0.00 0.00 0.02 0.01 0.00 0.00 0.00 0.01 0.01 0.02 0.01 0.05 0.08 0.05 0.02 0.03 0.00 0.00 0.00 0.00 0.00 0.00 0.00 0.00
0.00 0.00 0.00 0.00 0.00 0.00 0.00 0.00 0.00 0.00 0.00 0.00 0.00 0.00 0.00 0.00 0.00 0.00 0.00 0.00 0.01 0.00 0.00 0.00 0.00 0.00 0.00 0.03 0.01 0.02 0.03 0.02 0.01 0.00 0.01 0.01 0.05 0.04 0.02 0.02 0.02 0.00 0.00 0.00 0.00 0.00 0.00 0.00 0.00
0.00 0.00 0.00 0.00 0.00 0.00 0.00 0.00 0.00 0.00 0.00 0.00 0.00 0.00 0.00 0.00 0.00 0.00 0.00 0.00 0.00 0.01 0.03 0.01 0.00 0.00 0.03 0.09 0.06 0.03 0.00 0.00 0.00 0.01 0.02 0.04 0.05 0.06 0.04 0.02 0.02 0.00 0.00 0.00 0.00 0.00 0.00 0.00 0.00
0.00 0.00 0.00 0.00 0.00 0.00 0.00 0.00 0.00 0.00 0.00 0.00 0.00 0.00 0.00 0.00 0.00 0.00 0.00 0.00 0.00 0.01 0.04 0.03 0.00 0.00 0.06 0.12 0.03 0.01 0.00 0.01 0.00 0.00 0.03 0.06 0.06 0.05 0.03 0.02 0.01 0.00 0.00 0.00 0.00 0.00 0.00 0.00 0.00
0.00 0.00 0.00 0.00 0.00 0.00 0.00 0.00 0.00 0.00 0.00 0.00 0.00 0.00 0.00 0.00 0.00 0.00 0.00 0.00 0.00 0.01 0.02 0.04 0.01 0.02 0.02 0.03 0.03 0.04 0.10 0.07 0.00 0.01 0.02 0.03 0.03 0.01 0.02 0.01 0.00 0.00 0.00 0.00 0.00 0.00 0.00 0.00 0.00
0.00 0.00 0.00 0.00 0.00 0.00 0.00 0.00 0.00 0.00 0.00 0.00 0.00 0.00 0.00 0.00 0.00 0.00 0.00 0.00 0.00 0.01 0.01 0.02 0.04 0.02 0.02 0.05 0.05 0.10 0.11 0.03 0.01 0.00 0.02 0.02 0.01 0.00 0.00 0.00 0.01 0.00 0.00 0.00 0.00 0.00 0.00 0.00 0.00
0.00 0.00 0.00 0.00 0.00 0.00 0.00 0.00 0.00 0.00 0.00 0.00 0.00 0.00 0.00 0.00 0.00 0.00 0.00 0.00 0.00 0.00 0.01 0.01 0.01 0.02 0.01 0.04 0.05 0.01 0.00 0.00 0.00 0.00 0.00 0.01 0.00 0.00 0.00 0.00 0.00 0.00 0.00 0.00 0.00 0.00 0.00 0.00 0.00
0.00 0.00 0.00 0.00 0.00 0.00 0.00 0.00 0.00 0.00 0.00 0.00 0.00 0.00 0.00 0.00 0.00 0.00 0.00 0.00 0.00 0.00 0.00 0.00 0.00 0.00 0.01 0.01 0.00 0.00 0.00 0.00 0.00 0.00 0.00 0.00 0.00 0.00 0.00 0.01 0.00 0.00 0.00 0.00 0.00 0.00 0.00 0.00 0.00
0.00 0.00 0.00 0.00 0.00 0.00 0.00 0.00 0.00 0.00 0.00 0.00 0.00 0.00 0.00 0.00 0.00 0.00 0.00 0.00 0.00 0.00 0.00 0.00 0.00 0.00 0.00 0.00 0.00 0.00 0.00 0.00 0.00 0.00 0.00 0.00 0.00 0.00 0.01 0.01 0.00 0.00 0.00 0.00 0.00 0.00 0.00 0.00 0.00
0.00 0.00 0.00 0.00 0.00 0.00 0.00 0.00 0.00 0.00 0.00 0.00 0.00 0.00 0.00 0.00 0.00 0.00 0.00 0.00 0.00 0.00 0.00 0.00 0.00 0.00 0.00 0.00 0.00 0.00 0.00 0.00 0.01 0.00 0.00 0.00 0.00 0.00 0.00 0.00 0.00 0.00 0.00 0.00 0.00 0.00 0.00 0.00 0.00
0.00 0.00 0.00 0.00 0.00 0.00 0.00 0.00 0.00 0.00 0.00 0.00 0.00 0.00 0.00 0.00 0.00 0.00 0.00 0.00 0.00 0.00 0.00 0.00 0.00 0.00 0.00 0.00 0.00 0.00 0.00 0.00 0.00 0.00 0.00 0.00 0.00 0.00 0.00 0.00 0.00 0.00 0.00 0.00 0.00 0.00 0.00 0.00 0.00
0.00 0.00 0.00 0.00 0.00 0.00 0.00 0.00 0.00 0.00 0.00 0.00 0.00 0.00 0.00 0.00 0.00 0.00 0.00 0.00 0.00 0.00 0.00 0.00 0.00 0.00 0.00 0.00 0.00 0.00 0.00 0.00 0.00 0.00 0.00 0.00 0.00 0.00 0.00 0.00 0.00 0.00 0.00 0.00 0.00 0.00 0.00 0.00 0.00
MSLP
1010.58 1009.68 1009.50 1009.32 1009.77 1008.56 1007.21 1005.90 1005.45 1005.44 1005.39 1005.60 1005.35 1005.25 1005.25 1005.57 1006.44 1008.22 1008.46 1008.57 1008.53 1009.19 1010.08 1010.77 1011.09 1011.42 1011.78 1012.11 1012.44 1012.84 1013.11 1013.38 1013.57 1013.71 1013.87 1014.06 1014.21 1014.30 1014.38 1014.53 1014.54 1014.51 1014.73 1014.90 1015.06 1015.19 1015.28 1015.35 1015.41
1010.50 1009.81 1009.47 1009.49 1009.32 1008.00 1006.29 1005.47 1005.65 1005.66 1005.78 1006.05 1005.56 1005.39 1005.24 1006.61 1006.70 1007.81 1008.26 1008.44 1008.48 1008.98 1009.96 1010.61 1011.13 1011.52 1011.79 1012.06 1012.47 1012.91 1013.30 1013.52 1013.72 1013.93 1014.01 1014.18 1014.34 1014.56 1014.70 1014.79 1014.91 1014.96 1015.05 1015.17 1015.40 1015.57 1015.74 1015.79 1015.79
1010.81 1009.99 1010.04 1009.19 1008.54 1007.56 1006.25 1005.77 1005.92 1006.04 1006.07 1006.12 1005.73 1005.46 1005.67 1007.18 1007.29 1007.72 1008.04 1008.27 1008.56 1008.98 1009.78 1010.33 1011.12 1011.53 1011.85 1012.10 1012.45 1012.83 1013.21 1013.52 1013.85 1014.09 1014.23 1014.38 1014.50 1014.64 1014.91 1015.08 1015.20 1015.30 1015.44 1015.59 1015.74 1015.91 1016.06 1016.16 1016.16
1010.37 1010.00 1009.96 1009.01 1008.09 1006.61 1006.09 1005.95 1006.23 1006.48 1006.07 1006.26 1006.10 1006.05 1006.83 1007.70 1007.74 1008.12 1008.16 1008.24 1008.58 1009.03 1009.40 1010.28 1011.00 1011.48 1011.82 1012.11 1012.44 1012.75 1013.08 1013.51 1013.81 1014.27 1014.39 1014.58 1014.72 1014.79 1015.00 1015.32 1015.55 1015.64 1015.80 1015.96 1016.10 1016.32 1016.38 1016.41 1016.59
1010.20 1010.01 1009.65 1008.72 1007.76 1006.48 1005.99 1006.15 1006.76 1006.75 1006.41 1006.41 1006.56 1006.55 1007.27 1007.96 1008.07 1008.39 1008.35 1008.27 1008.41 1008.73 1009.27 1010.21 1010.89 1011.47 1011.78 1012.05 1012.36 1012.79 1013.15 1013.52 1013.77 1014.15 1014.55 1014.74 1014.84 1015.03 1015.19 1015.42 1015.75 1015.95 1016.10 1016.25 1016.42 1016.63 1016.76 1016.75 1016.87
1010.18 1009.88 1009.48 1008.43 1007.14 1006.05 1006.05 1006.31 1007.03 1007.00 1006.71 1006.79 1007.00 1007.07 1007.80 1008.29 1008.45 1008.46 1008.74 1008.52 1008.32 1008.51 1009.16 1010.03 1010.54 1011.23 1011.76 1012.03 1012.33 1012.64 1013.05 1013.45 1013.90 1014.15 1014.46 1014.76 1015.01 1015.15 1015.41 1015.62 1015.90 1016.19 1016.39 1016.62 1016.78 1017.01 1017.10 1017.21 1017.16
1010.14 1010.12 1009.47 1008.40 1007.19 1006.42 1006.38 1006.52 1007.10 1006.97 1006.95 1007.11 1007.39 1007.71 1008.12 1008.60 1008.83 1008.64 1008.93 1009.05 1008.80 1008.62 1009.01 1009.93 1010.62 1011.00 1011.69 1012.05 1012.32 1012.65 1012.94 1013.46 1013.84 1014.19 1014.54 1014.82 1015.11 1015.40 1015.63 1015.87 1016.12 1016.43 1016.69 1016.89 1017.07 1017.24 1017.33 1017.42 1017.47
1010.24 1010.09 1009.42 1008.39 1007.55 1006.70 1006.65 1007.13 1007.37 1007.53 1007.47 1007.52 1007.64 1007.80 1008.41 1009.09 1009.18 1009.16 1009.28 1009.48 1009.67 1009.34 1009.35 1010.04 1010.59 1011.20 1011.52 1012.15 1012.43 1012.69 1012.91 1013.30 1013.81 1014.23 1014.56 1014.78 1015.14 1015.60 1015.89 1016.11 1016.31 1016.59 1016.87 1017.14 1017.37 1017.63 1017.80 1017.80 1017.71
1010.28 1010.30 1009.34 1008.23 1007.22 1007.26 1007.24 1007.62 1007.49 1007.82 1007.96 1007.61 1007.66 1007.93 1008.52 1008.79 1009.07 1009.22 1009.40 1009.88 1010.03 1009.91 1010.23 1010.59 1010.78 1011.18 1011.52 1011.94 1012.19 1012.74 1013.04 1013.28 1013.90 1014.44 1014.99 1015.00 1015.37 1015.64 1015.92 1016.32 1016.56 1016.76 1017.03 1017.32 1017.66 1017.90 1018.10 1018.25 1018.24
1010.25 1009.73 1008.81 1008.17 1007.91 1007.80 1007.51 1007.84 1007.69 1007.80 1007.79 1007.69 1007.55 1007.81 1008.20 1008.79 1008.90 1008.91 1009.21 1009.51 1010.12 1010.30 1010.31 1010.63 1010.64 1011.18 1011.56 1011.94 1012.22 1012.52 1013.18 1013.83 1014.35 1014.87 1015.11 1015.61 1015.36 1015.66 1015.82 1016.31 1016.81 1016.99 1017.26 1017.44 1017.75 1018.08 1018.24 1018.38 1018.47
1009.38 1009.31 1008.52 1008.30 1008.20 1008.14 1008.03 1007.97 1007.99 1007.99 1008.02 1007.76 1007.66 1007.84 1008.33 1008.94 1008.98 1009.04 1009.02 1009.25 1009.59 1010.07 1010.44 1010.56 1010.87 1011.04 1011.45 1011.87 1012.70 1012.77 1013.17 1014.24 1014.85 1015.23 1014.85 1016.04 1016.19 1016.95 1016.30 1016.61 1017.02 1017.43 1017.55 1017.71 1018.04 1018.25 1018.37 1018.43 1018.45
1009.06 1008.90 1008.57 1008.37 1008.25 1008.55 1008.41 1008.16 1007.93 1007.79 1007.99 1007.72 1008.06 1008.31 1008.63 1008.92 1008.89 1008.99 1009.15 1009.40 1009.67 1009.90 1010.09 1010.41 1010.78 1011.17 1011.42 1011.81 1012.41 1012.95 1013.18 1013.60 1013.97 1014.94 1014.94 1015.58 1016.68 1017.43 1017.73 1017.35 1016.99 1017.52 1017.68 1017.81 1017.96 1018.21 1018.31 1018.38 1018.40
1008.51 1008.57 1008.25 1008.12 1008.22 1008.54 1008.52 1008.31 1008.16 1007.79 1007.54 1007.57 1008.11 1008.71 1008.96 1008.99 1009.00 1009.06 1009.10 1009.32 1009.66 1009.90 1009.92 1010.25 1010.70 1011.03 1011.34 1011.79 1012.13 1012.79 1013.10 1013.71 1014.11 1014.50 1014.81 1015.64 1016.59 1017.70 1017.90 1017.87 1017.64 1017.16 1017.28 1017.38 1017.73 1018.01 1018.24 1018.33 1018.52
1008.12 1008.23 1008.06 1007.80 1007.87 1008.03 1008.09 1008.02 1007.99 1007.50 1007.31 1007.45 1007.95 1008.68 1009.00 1008.95 1008.96 1009.13 1009.37 1009.48 1009.37 1009.39 1009.58 1009.76 1010.30 1010.75 1011.16 1011.58 1012.00 1012.55 1013.04 1013.75 1014.27 1014.69 1015.00 1015.54 1015.72 1016.02 1016.77 1017.76 1017.92 1017.42 1017.15 1017.24 1017.47 1018.07 1018.52 1018.62 1018.61
1008.34 1008.46 1008.02 1007.47 1007.41 1007.49 1007.64 1007.71 1007.48 1006.91 1006.89 1007.14 1007.75 1008.36 1008.66 1008.80 1009.07 1009.39 1009.52 1009.44 1009.44 1009.54 1009.53 1009.67 1009.91 1010.43 1010.97 1011.29 1011.67 1012.11 1012.47 1013.09 1013.87 1014.19 1014.83 1015.34 1015.54 1015.31 1015.95 1017.16 1017.36 1017.58 1016.73 1017.08 1017.51 1018.15 1018.57 1018.94 1019.23
1008.57 1008.30 1007.70 1006.49 1006.43 1007.02 1007.75 1007.36 1006.77 1005.89 1006.51 1007.06 1007.62 1007.96 1008.05 1008.31 1008.62 1008.82 1008.88 1009.01 1009.18 1009.40 1009.61 1009.64 1009.68 1010.06 1010.70 1011.04 1011.45 1011.81 1011.87 1012.52 1013.31 1013.85 1014.26 1014.77 1015.40 1015.49 1016.01 1016.24 1017.41 1017.32 1016.96 1017.19 1017.69 1018.45 1019.11 1019.47 1019.86
1008.06 1007.52 1006.92 1006.47 1006.25 1006.80 1007.53 1007.17 1006.47 1006.38 1006.67 1007.12 1007.44 1007.66 1007.74 1007.84 1008.13 1008.45 1008.88 1009.15 1009.28 1009.23 1009.48 1009.79 1010.00 1010.01 1010.32 1010.78 1011.14 1011.66 1011.70 1012.17 1012.65 1013.33 1013.76 1014.35 1014.69 1015.15 1015.61 1015.99 1016.66 1017.26 1017.09 1017.24 1017.63 1018.55 1019.26 1019.88 1020.33
1007.13 1006.95 1006.40 1006.04 1006.19 1006.54 1007.01 1006.82 1006.53 1006.23 1006.25 1006.62 1007.17 1007.49 1007.71 1008.00 1008.61 1009.15 1009.48 1009.60 1009.58 1009.45 1009.24 1009.51 1010.13 1010.23 1010.05 1010.47 1010.86 1011.28 1011.79 1012.26 1012.45 1012.91 1013.46 1014.02 1014.25 1014.65 1015.31 1016.10 1016.26 1016.79 1017.13 1017.87 1017.65 1018.44 1019.29 1019.99 1020.49
1007.04 1006.83 1006.57 1006.27 1005.97 1006.03 1006.40 1006.45 1006.22 1005.73 1005.69 1006.16 1006.81 1007.48 1007.97 1008.66 1009.27 1010.04 1010.50 1010.45 1010.05 1009.60 1009.34 1009.59 1010.15 1010.37 1010.22 1010.43 1010.97 1011.32 1011.83 1012.25 1012.58 1012.85 1013.24 1013.67 1013.93 1014.44 1015.05 1015.76 1016.28 1016.15 1016.95 1017.75 1018.36 1018.58 1019.45 1020.21 1020.65
1006.72 1006.68 1006.65 1006.42 1005.98 1006.23 1006.35 1006.02 1005.56 1005.33 1005.30 1005.74 1006.57 1007.59 1008.50 1009.42 1010.32 1010.96 1010.98 1010.92 1010.58 1010.17 1009.32 1009.42 1009.78 1010.10 1010.21 1010.39 1010.74 1011.34 1011.78 1012.39 1012.73 1012.96 1013.06 1013.30 1013.68 1014.04 1014.65 1015.27 1015.79 1016.08 1016.79 1017.68 1018.57 1018.91 1019.82 1020.44 1020.72
1006.83 1006.92 1006.83 1006.70 1006.36 1006.36 1006.40 1005.41 1004.91 1003.71 1005.09 1006.07 1007.11 1008.07 1009.19 1010.30 1011.03 1011.31 1011.39 1011.32 1010.97 1010.61 1010.13 1009.67 1009.52 1009.73 1009.96 1010.55 1010.99 1011.72 1012.18 1012.84 1013.27 1013.40 1013.28 1013.29 1013.35 1013.84 1014.10 1014.67 1015.44 1016.09 1016.90 1017.73 1018.28 1019.37 1019.96 1020.49 1020.99
1006.33 1006.69 1006.73 1006.90 1007.29 1007.24 1006.64 1005.87 1005.04 1005.06 1005.61 1006.60 1007.53 1008.28 1009.50 1010.68 1011.27 1011.55 1011.64 1011.56 1011.31 1010.97 1010.39 1009.87 1009.41 1009.43 1009.87 1010.42 1011.18 1011.75 1012.13 1012.95 1013.46 1013.64 1013.58 1013.71 1013.62 1013.95 1013.94 1014.29 1015.52 1015.99 1016.92 1017.67 1018.08 1019.33 1020.11 1020.39 1021.00
1006.22 1006.78 1007.35 1007.66 1007.94 1007.85 1007.21 1006.99 1004.40 1003.62 1005.63 1006.55 1007.37 1008.31 1009.68 1010.87 1011.40 1011.65 1011.83 1011.79 1011.56 1011.19 1010.84 1010.45 1009.91 1009.73 1010.19 1010.62 1011.13 1011.77 1012.43 1013.10 1013.40 1013.55 1013.79 1014.32 1014.68 1014.32 1014.23 1014.83 1015.61 1016.60 1016.74 1017.66 1018.31 1018.93 1019.96 1020.27 1020.74
1006.49 1007.23 1007.86 1008.36 1008.71 1008.08 1006.57 1006.57 1004.59 1004.44 1004.77 1005.87 1007.06 1008.36 1009.76 1010.83 1011.43 1011.73 1011.91 1012.00 1011.86 1011.67 1011.41 1011.20 1010.89 1010.72 1010.60 1010.69 1011.18 1011.91 1012.44 1012.93 1013.40 1013.64 1013.76 1014.18 1014.76 1015.39 1014.46 1015.48 1015.91 1016.49 1016.97 1017.81 1018.41 1018.81 1019.79 1020.19 1020.59
1006.92 1007.64 1008.36 1009.05 1009.02 1007.75 1006.42 1005.69 1004.68 1004.35 1004.50 1005.47 1006.90 1008.38 1009.77 1010.78 1011.37 1011.96 1012.10 1012.20 1012.28 1012.19 1012.08 1011.92 1011.82 1011.75 1011.55 1011.30 1011.52 1012.15 1012.60 1012.94 1013.09 1013.47 1013.81 1014.26 1014.80 1015.43 1015.84 1015.92 1016.52 1017.21 1017.53 1017.68 1018.48 1018.79 1019.43 1020.14 1020.50
1006.65 1007.28 1007.82 1008.61 1008.42 1007.90 1007.09 1005.95 1004.56 1003.93 1004.86 1005.73 1006.80 1008.18 1009.70 1010.84 1011.46 1012.02 1012.39 1012.63 1012.79 1012.72 1012.62 1012.45 1012.44 1012.66 1012.53 1012.50 1012.63 1012.85 1013.19 1013.43 1013.43 1013.64 1013.87 1014.03 1014.61 1015.59 1016.14 1016.48 1017.17 1017.48 1017.73 1018.00 1018.07 1018.79 1019.33 1019.87 1020.15
1006.01 1006.71 1006.94 1007.64 1007.91 1007.98 1006.66 1005.09 1004.68 1004.86 1005.64 1006.47 1007.34 1008.41 1009.68 1010.64 1011.35 1011.99 1012.41 1012.87 1013.02 1013.03 1013.11 1012.99 1013.01 1013.09 1013.14 1013.22 1013.34 1013.39 1013.51 1013.77 1013.76 1013.95 1014.00 1014.65 1014.90 1015.84 1016.54 1017.05 1017.59 1017.92 1018.42 1018.42 1018.43 1019.07 1019.51 1019.71 1020.33
1005.15 1005.72 1006.89 1007.51 1007.85 1007.30 1005.11 1004.04 1003.68 1004.41 1005.21 1006.28 1007.35 1008.26 1009.33 1010.32 1011.09 1011.92 1012.43 1012.97 1013.25 1013.29 1013.37 1013.48 1013.53 1013.49 1013.47 1013.54 1013.75 1013.95 1014.01 1014.15 1014.39 1014.77 1014.92 1015.55 1015.79 1016.14 1016.71 1017.62 1018.05 1018.56 1019.02 1019.14 1019.41 1019.66 1019.93 1020.28 1020.64
1005.00 1005.43 1005.72 1006.21 1006.26 1005.73 1004.62 1002.92 1002.00 1002.74 1003.88 1005.17 1006.60 1007.73 1008.80 1010.00 1010.84 1011.75 1012.44 1013.05 1013.38 1013.53 1013.51 1013.85 1013.86 1013.90 1013.88 1013.98 1014.16 1014.35 1014.65 1014.84 1015.08 1015.50 1015.79 1016.22 1016.65 1016.84 1017.38 1018.09 1018.62 1019.27 1019.71 1019.94 1020.15 1020.34 1020.62 1021.09 1021.45
1004.32 1004.60 1005.09 1005.03 1004.96 1004.76 1004.27 1002.96 1001.61 1002.26 1003.53 1004.59 1005.83 1007.12 1008.29 1009.43 1010.74 1011.73 1012.38 1012.98 1013.43 1013.62 1013.76 1013.97 1014.27 1014.25 1014.43 1014.59 1014.81 1015.03 1015.15 1015.45 1015.78 1016.19 1016.55 1016.80 1017.19 1017.77 1018.15 1018.63 1019.15 1019.56 1019.94 1020.36 1020.70 1021.09 1021.40 1021.86 1022.34
Thickness
5759 5766 5769 5760 5726 5735 5734 5757 5774 5767 5770 5781 5790 5784 5779 5783 5770 5741 5787 5791 5794 5791 5782 5777 5775 5773 5771 5770 5767 5765 5763 5762 5761 5759 5759 5760 5759 5759 5759 5759 5760 5761 5760 5759 5757 5756 5756 5755 5755
5756 5762 5759 5743 5717 5718 5738 5768 5758 5766 5774 5778 5783 5784 5781 5763 5787 5779 5778 5790 5792 5788 5780 5775 5772 5769 5767 5766 5764 5760 5758 5757 5756 5755 5755 5754 5756 5755 5754 5754 5754 5755 5755 5755 5754 5753 5751 5751 5752
5750 5758 5735 5729 5723 5716 5736 5763 5760 5768 5776 5773 5773 5787 5781 5763 5782 5782 5788 5789 5787 5784 5777 5773 5767 5764 5762 5761 5759 5756 5754 5753 5752 5751 5750 5750 5750 5750 5750 5749 5749 5749 5749 5749 5749 5749 5748 5747 5747
5745 5744 5738 5719 5720 5749 5754 5761 5762 5759 5772 5776 5775 5762 5776 5778 5777 5781 5787 5786 5781 5779 5776 5769 5763 5759 5757 5755 5753 5751 5750 5748 5748 5745 5745 5745 5745 5745 5745 5744 5743 5744 5743 5743 5743 5743 5743 5743 5742
5743 5734 5714 5716 5726 5749 5762 5762 5758 5751 5760 5764 5767 5755 5758 5773 5780 5777 5778 5780 5777 5777 5773 5764 5758 5752 5750 5749 5748 5745 5743 5742 5742 5741 5739 5739 5740 5740 5740 5739 5738 5738 5737 5737 5737 5737 5737 5738 5737
5722 5729 5707 5709 5730 5755 5758 5762 5753 5750 5756 5759 5757 5753 5750 5772 5767 5770 5771 5773 5776 5773 5770 5761 5754 5747 5742 5740 5741 5740 5738 5735 5733 5735 5734 5734 5734 5735 5734 5734 5733 5732 5732 5731 5731 5730 5731 5731 5732
5717 5710 5705 5715 5728 5742 5748 5759 5745 5747 5749 5750 5757 5739 5748 5758 5760 5766 5764 5764 5766 5767 5763 5753 5746 5741 5734 5732 5732 5732 5730 5728 5727 5727 5727 5728 5728 5728 5727 5727 5726 5726 5725 5726 5725 5725 5725 5726 5727
5719 5714 5707 5717 5719 5730 5748 5745 5749 5743 5740 5757 5757 5734 5731 5746 5754 5756 5756 5752 5750 5753 5750 5745 5737 5730 5726 5722 5722 5722 5723 5722 5721 5720 5720 5722 5721 5720 5720 5720 5720 5719 5719 5719 5720 5718 5718 5719 5722
5726 5696 5696 5714 5730 5729 5742 5732 5747 5749 5738 5747 5751 5745 5745 5749 5749 5745 5743 5739 5737 5737 5734 5730 5729 5720 5716 5715 5713 5712 5714 5715 5712 5710 5708 5712 5711 5713 5713 5712 5712 5713 5713 5713 5713 5712 5713 5713 5715
5707 5697 5710 5729 5728 5725 5736 5731 5735 5734 5733 5735 5742 5747 5747 5741 5739 5735 5731 5727 5723 5721 5722 5719 5717 5712 5707 5705 5704 5706 5705 5704 5701 5700 5697 5695 5701 5703 5707 5707 5705 5705 5707 5707 5707 5707 5707 5709 5710
5715 5699 5722 5725 5728 5729 5726 5727 5734 5726 5719 5732 5731 5736 5737 5731 5730 5727 5725 5723 5719 5715 5709 5708 5702 5699 5697 5695 5694 5696 5694 5691 5686 5683 5684 5685 5686 5687 5694 5697 5697 5696 5699 5701 5701 5702 5703 5705 5707
5705 5717 5721 5723 5726 5720 5717 5727 5725 5728 5724 5737 5733 5731 5728 5722 5721 5719 5715 5710 5706 5703 5700 5697 5693 5689 5687 5686 5686 5685 5685 5680 5678 5676 5681 5680 5675 5671 5672 5680 5689 5690 5691 5696 5698 5700 5700 5702 5703
5711 5714 5723 5724 5723 5718 5720 5715 5717 5721 5733 5736 5730 5721 5715 5715 5713 5711 5707 5702 5695 5688 5688 5686 5683 5678 5677 5676 5677 5677 5676 5672 5667 5674 5673 5671 5664 5657 5659 5665 5674 5683 5688 5692 5696 5696 5697 5699 5700
5720 5717 5718 5723 5720 5719 5713 5714 5717 5723 5732 5727 5722 5711 5708 5707 5705 5700 5693 5686 5683 5680 5675 5678 5672 5670 5667 5666 5666 5669 5667 5663 5661 5661 5661 5663 5663 5668 5665 5663 5665 5676 5681 5688 5691 5691 5690 5694 5696
5714 5700 5710 5716 5719 5714 5719 5704 5708 5726 5729 5721 5715 5708 5704 5702 5697 5687 5681 5676 5673 5667 5663 5660 5662 5659 5656 5657 5658 5659 5663 5661 5654 5656 5654 5658 5658 5670 5667 5664 5662 5666 5681 5683 5687 5686 5685 5686 5687
5697 5699 5684 5718 5722 5717 5707 5685 5713 5734 5723 5714 5708 5704 5701 5697 5693 5687 5679 5671 5665 5657 5649 5646 5649 5648 5646 5648 5648 5650 5656 5658 5654 5653 5656 5656 5656 5660 5660 5665 5659 5658 5671 5678 5681 5679 5676 5677 5677
5694 5681 5691 5701 5719 5711 5699 5690 5712 5724 5715 5705 5702 5699 5697 5692 5688 5680 5669 5658 5651 5648 5638 5628 5626 5632 5635 5639 5642 5644 5648 5650 5652 5653 5652 5654 5657 5657 5655 5660 5656 5656 5664 5671 5675 5673 5670 5668 5669
5686 5689 5700 5698 5704 5706 5693 5694 5707 5713 5711 5704 5700 5696 5693 5687 5675 5665 5654 5646 5639 5632 5624 5612 5607 5614 5625 5631 5637 5640 5642 5642 5647 5650 5651 5650 5655 5657 5654 5649 5655 5657 5661 5659 5668 5668 5665 5664 5662
5697 5692 5687 5696 5709 5702 5694 5693 5701 5711 5712 5704 5697 5692 5687 5674 5665 5651 5640 5634 5629 5621 5612 5600 5596 5603 5615 5623 5628 5632 5635 5637 5641 5644 5647 5650 5652 5650 5651 5651 5650 5661 5656 5653 5658 5659 5658 5657 5658
5693 5686 5682 5693 5704 5696 5690 5693 5703 5710 5710 5708 5699 5687 5676 5664 5649 5636 5631 5625 5618 5611 5612 5604 5601 5605 5613 5622 5626 5630 5631 5631 5634 5638 5643 5646 5648 5650 5650 5651 5652 5655 5651 5649 5647 5651 5649 5648 5652
5681 5677 5677 5679 5691 5694 5685 5690 5699 5720 5710 5699 5690 5682 5669 5652 5639 5631 5625 5619 5612 5607 5606 5607 5607 5611 5617 5617 5620 5622 5624 5623 5624 5629 5637 5642 5647 5646 5649 5651 5649 5648 5645 5644 5645 5639 5638 5639 5641
5673 5688 5688 5682 5668 5651 5688 5653 5688 5698 5692 5687 5680 5676 5662 5648 5637 5628 5621 5614 5609 5607 5608 5610 5614 5617 5617 5617 5617 5620 5622 5618 5619 5622 5629 5633 5639 5641 5646 5649 5643 5643 5640 5639 5640 5632 5627 5630 5632
5680 5687 5677 5674 5661 5657 5668 5647 5691 5711 5682 5680 5678 5672 5659 5644 5634 5626 5618 5613 5609 5609 5609 5610 5616 5619 5618 5619 5619 5618 5615 5613 5615 5618 5621 5621 5624 5634 5640 5639 5636 5631 5636 5635 5633 5630 5626 5626 5629
5689 5675 5669 5663 5653 5636 5669 5661 5677 5687 5689 5687 5680 5671 5656 5643 5634 5625 5619 5613 5608 5608 5608 5608 5611 5613 5617 5620 5620 5616 5614 5612 5611 5612 5616 5618 5618 5619 5636 5628 5629 5631 5630 5628 5626 5627 5622 5620 5625
5670 5657 5625 5628 5621 5633 5679 5670 5678 5693 5697 5688 5676 5666 5655 5642 5634 5622 5616 5612 5608 5606 5605 5606 5607 5608 5612 5616 5619 5616 5614 5610 5610 5606 5609 5612 5611 5612 5618 5622 5622 5621 5620 5623 5619 5622 5620 5617 5619
5657 5653 5631 5615 5623 5631 5668 5643 5678 5699 5692 5687 5682 5669 5655 5640 5632 5622 5615 5610 5605 5603 5603 5603 5603 5601 5604 5606 5609 5610 5607 5602 5604 5602 5602 5606 5611 5611 5613 5614 5612 5614 5616 5616 5618 5617 5617 5618 5619
5658 5644 5666 5645 5652 5630 5649 5678 5683 5685 5678 5674 5670 5663 5651 5641 5632 5624 5616 5609 5605 5602 5600 5600 5599 5598 5599 5599 5601 5602 5601 5599 5596 5592 5597 5596 5603 5605 5605 5605 5606 5607 5606 5609 5612 5611 5611 5614 5614
5660 5670 5637 5636 5619 5623 5663 5672 5674 5674 5673 5671 5665 5661 5653 5645 5636 5625 5617 5610 5604 5602 5600 5598 5599 5597 5597 5598 5598 5596 5595 5594 5590 5588 5590 5591 5594 5598 5599 5597 5598 5599 5598 5602 5603 5604 5606 5606 5605
5649 5645 5655 5651 5647 5641 5648 5673 5705 5689 5687 5676 5671 5666 5656 5645 5639 5629 5619 5611 5605 5601 5600 5596 5595 5598 5597 5597 5596 5594 5591 5590 5588 5587 5586 5585 5588 5592 5593 5591 5592 5591 5591 5593 5594 5596 5596 5594 5594
5652 5648 5650 5632 5646 5654 5653 5658 5710 5699 5689 5683 5676 5669 5661 5651 5638 5630 5620 5613 5607 5603 5599 5596 5593 5592 5592 5592 5590 5589 5590 5589 5587 5583 5584 5584 5585 5584 5584 5585 5585 5583 5585 5586 5587 5588 5587 5583 5581